Location: Blangy-Tronville
(49.8790°N, 2.4226°E)
Time: 21:19:47
(UTC+00:00)

Okean 2 Rocket - Pass Details

Date: 18 November 2025
Orbit: 610 x 635 km, 82.5° (Epoch: 05 December)

Event Time Altitude Azimuth Distance (km) Brightness Sun altitude
Rises 18:48:47 0° 207° (SSW) 2,885 6.8 -26.4°
Reaches altitude 10° 18:51:06 10° 214° (SW) 1,980 6.0 -26.8°
Maximum altitude 18:55:16 42° 286° (WNW) 886 4.2 -27.5°
Enters shadow 18:57:19 25° 341° (NNW) 1,242 4.7 -27.8°
